RH
17 15 14 13 12 12 11 11 11 11 12 12 10 6 3 3 4 5 7 8 10 15 22 35 45 62 68 70 73 70 61 62 57 50 41 41 41 40 39 35 37 37 35 36 35
17 15 14 12 11 10 9 9 9 8 10 11 11 9 5 3 3 4 6 7 8 14 18 30 48 57 68 70 71 68 58 55 50 42 41 41 42 40 37 38 41 39 36 35 35
19 17 15 13 11 9 7 7 7 7 8 9 10 10 8 5 4 7 4 6 7 13 21 25 41 55 65 65 65 63 59 49 43 40 42 42 44 43 38 36 39 38 35 36 34
21 19 18 14 12 10 7 7 7 6 7 7 8 9 8 6 6 7 4 5 11 15 18 22 34 52 61 65 64 64 60 55 54 48 43 44 44 44 44 39 38 38 36 36 36
27 21 19 17 15 12 9 8 7 6 7 7 7 8 8 9 7 7 5 5 9 14 16 20 30 45 56 61 65 64 60 61 64 59 53 47 48 48 45 41 40 38 36 36 36
31 28 22 19 16 14 11 10 9 7 6 6 6 7 8 8 9 8 7 5 8 11 14 18 22 33 48 56 61 62 60 60 60 59 58 55 53 50 49 47 43 39 38 38 36
30 28 26 22 19 15 13 12 11 9 8 6 5 6 7 8 10 10 9 10 8 8 12 13 17 28 42 54 57 65 63 57 54 55 59 59 56 53 50 44 42 43 39 39 37
32 29 28 25 21 18 15 14 12 11 9 5 5 5 7 7 11 12 11 9 8 8 10 13 16 27 35 44 54 64 60 56 53 50 55 56 58 56 54 50 47 43 39 40 39
37 29 28 26 24 21 18 17 14 13 11 7 6 8 9 7 12 13 13 12 10 9 8 10 17 25 29 39 49 51 57 55 56 57 55 54 61 56 56 55 50 44 42 38 40
41 34 29 28 26 23 21 20 17 14 13 8 6 11 9 12 12 13 13 12 10 9 10 11 18 21 25 35 45 50 52 58 58 55 55 59 58 54 54 56 57 50 43 37 37
41 37 30 29 27 26 23 22 22 19 15 14 10 14 11 11 10 10 11 12 11 12 11 15 18 17 24 32 47 50 50 51 53 49 54 56 56 54 51 52 55 52 45 36 33
38 35 30 29 27 27 25 26 23 21 17 12 10 13 11 10 10 10 10 10 10 12 14 14 15 21 24 27 30 38 44 45 49 46 49 48 53 54 52 53 55 49 46 39 32
37 31 27 27 26 27 26 26 23 20 19 13 12 14 13 12 12 10 10 9 10 13 14 14 16 21 20 20 26 30 44 49 44 41 47 51 50 49 49 52 56 52 50 49 36
36 28 24 25 25 26 28 26 23 20 19 15 15 15 14 14 13 12 11 11 11 13 15 16 19 19 20 19 20 29 33 41 45 41 42 47 49 54 50 50 52 55 52 52 41
35 29 23 23 23 23 24 26 25 21 18 16 16 14 12 11 10 10 10 11 13 13 14 15 15 15 18 21 20 23 28 31 37 47 43 41 45 48 51 47 50 50 54 50 48
34 27 23 23 23 23 25 25 25 23 24 16 16 13 10 9 10 10 10 11 12 13 13 15 13 13 15 16 16 18 18 24 27 31 37 38 45 44 42 44 48 49 52 53 46
36 26 24 24 28 27 27 25 27 27 23 17 15 12 11 11 10 10 10 10 12 13 13 13 12 11 10 12 13 14 16 17 23 27 32 33 35 40 36 43 46 50 50 52 54
35 27 26 25 28 28 28 28 31 27 22 18 14 11 13 11 13 11 11 11 10 12 13 13 13 12 10 10 12 12 14 15 21 21 24 30 32 36 37 38 38 38 48 50 51
32 31 28 27 27 27 29 28 30 27 25 19 17 15 15 14 14 13 13 14 13 12 15 13 12 12 12 12 12 13 13 13 19 21 23 25 27 22 36 38 36 43 46 49 51
31 32 32 26 27 27 29 33 26 26 27 26 23 22 23 19 17 17 16 16 16 14 11 13 16 12 13 12 12 14 15 14 14 20 21 18 25 22 23 25 37 38 41 44 49
32 33 32 28 26 28 30 29 26 32 33 27 25 25 24 22 23 22 21 21 20 17 16 15 14 16 13 14 16 15 14 14 16 16 18 21 22 19 26 31 39 42 40 41 46
36 36 32 31 32 30 30 32 32 32 34 32 30 31 29 25 25 24 24 23 21 21 20 18 17 23 18 18 16 15 20 20 18 21 19 22 24 34 28 35 41 46 45 46 46
40 40 36 37 40 36 32 30 34 35 37 36 36 29 28 29 30 28 27 26 26 26 23 21 20 25 24 18 17 20 19 18 19 22 26 24 21 41 42 39 43 51 49 50 49
47 45 41 40 43 42 35 32 31 32 33 32 31 33 32 30 30 31 30 28 27 29 25 23 24 24 28 31 29 27 21 19 18 20 19 24 30 48 40 40 44 50 51 51 57
54 49 49 45 43 45 41 36 33 33 34 33 33 32 32 33 31 31 29 28 28 26 28 28 29 26 25 28 27 26 24 22 21 25 28 31 31 42 49 45 44 45 52 54 56
60 53 53 50 46 48 47 41 38 37 37 37 36 32 30 30 28 29 26 28 31 29 29 28 36 30 28 24 23 23 23 23 21 24 32 29 38 43 49 49 47 46 48 57 57
66 60 59 56 51 51 50 47 42 41 42 40 37 34 31 28 24 24 25 27 29 30 30 28 29 30 31 34 29 26 21 24 28 33 34 32 50 47 50 47 48 48 47 56 62